TimeCET,TemperatureF,Dew PointF,Humidity,Sea Level PressureIn,VisibilityMPH,Wind Direction,Wind SpeedMPH,Gust SpeedMPH,PrecipitationIn,Events,Conditions,WindDirDegrees,DateUTC
12:25 AM,48.2,46.4,93,30.24,6.2,SW,19.6,-,N/A,,Scattered Clouds,230,2013-12-08 23:25:00
12:55 AM,48.2,46.4,93,30.24,6.2,WSW,20.7,-,N/A,,Scattered Clouds,240,2013-12-08 23:55:00
1:00 AM,49,46,85,30.25,10,SW,22.4,,,,Partly Cloudy,230,2013-12-09 00:00:00
1:25 AM,48.2,46.4,93,30.24,6.2,SW,19.6,-,N/A,,Scattered Clouds,230,2013-12-09 00:25:00
1:55 AM,48.2,46.4,93,30.24,6.2,SW,19.6,-,N/A,,Mostly Cloudy,230,2013-12-09 00:55:00
2:25 AM,48.2,46.4,93,30.24,6.2,WSW,20.7,33.4,N/A,,Scattered Clouds,240,2013-12-09 01:25:00
2:55 AM,48.2,46.4,93,30.24,6.2,WSW,18.4,-,N/A,,Mostly Cloudy,240,2013-12-09 01:55:00
3:25 AM,48.2,46.4,93,30.24,6.2,WSW,18.4,-,N/A,,Overcast,240,2013-12-09 02:25:00
3:55 AM,48.2,46.4,93,30.24,6.2,WSW,20.7,-,N/A,,Overcast,240,2013-12-09 02:55:00
4:00 AM,48,46,90,30.25,9,WSW,20.1,,,,Overcast,240,2013-12-09 03:00:00
4:25 AM,48.2,46.4,93,30.24,6.2,WSW,19.6,-,N/A,,Overcast,240,2013-12-09 03:25:00
4:55 AM,48.2,46.4,93,30.24,6.2,WSW,18.4,-,N/A,,Overcast,240,2013-12-09 03:55:00
5:25 AM,48.2,46.4,93,30.27,6.2,WSW,15.0,-,N/A,,Overcast,250,2013-12-09 04:25:00
5:55 AM,48.2,46.4,93,30.27,6.2,WSW,18.4,-,N/A,,Mostly Cloudy,240,2013-12-09 04:55:00
6:25 AM,48.2,46.4,93,30.27,6.2,WSW,18.4,-,N/A,,Mostly Cloudy,240,2013-12-09 05:25:00
6:55 AM,50.0,46.4,87,30.27,6.2,WSW,17.3,-,N/A,,Scattered Clouds,250,2013-12-09 05:55:00
7:00 AM,49,46,87,30.29,8,WSW,15.7,,,,Partly Cloudy,250,2013-12-09 06:00:00
7:25 AM,50.0,46.4,87,30.27,6.2,WSW,15.0,-,N/A,,Unknown,250,2013-12-09 06:25:00
7:55 AM,50.0,44.6,82,30.27,6.2,WSW,15.0,-,N/A,,Unknown,250,2013-12-09 06:55:00
8:25 AM,50.0,44.6,82,30.30,6.2,WSW,15.0,-,N/A,,Unknown,250,2013-12-09 07:25:00
8:55 AM,50.0,46.4,87,30.30,6.2,WSW,13.8,-,N/A,,Unknown,250,2013-12-09 07:55:00
9:25 AM,50.0,46.4,87,30.30,6.2,WSW,13.8,-,N/A,,Unknown,250,2013-12-09 08:25:00
9:55 AM,50.0,46.4,87,30.33,6.2,WSW,12.7,-,N/A,,Unknown,250,2013-12-09 08:55:00
10:00 AM,49,46,85,30.34,13,WSW,13.4,,,,Overcast,250,2013-12-09 09:00:00
10:25 AM,50.0,46.4,87,30.33,6.2,WSW,13.8,-,N/A,,Unknown,250,2013-12-09 09:25:00
10:55 AM,50.0,46.4,87,30.33,6.2,West,15.0,-,N/A,,Unknown,260,2013-12-09 09:55:00
11:25 AM,50.0,46.4,87,30.33,6.2,WSW,15.0,-,N/A,,Partly Cloudy,250,2013-12-09 10:25:00
11:55 AM,50.0,46.4,87,30.36,6.2,WSW,15.0,-,N/A,,Mostly Cloudy,250,2013-12-09 10:55:00
12:25 PM,51.8,46.4,82,30.36,6.2,West,12.7,-,N/A,,Mostly Cloudy,260,2013-12-09 11:25:00
12:55 PM,50.0,46.4,87,30.36,6.2,West,13.8,-,N/A,,Partly Cloudy,260,2013-12-09 11:55:00
1:00 PM,50,46,82,30.37,12,WSW,13.4,,,,Partly Cloudy,250,2013-12-09 12:00:00
1:25 PM,50.0,46.4,87,30.36,6.2,WSW,12.7,-,N/A,,Unknown,250,2013-12-09 12:25:00
1:55 PM,50.0,46.4,87,30.36,6.2,WSW,11.5,-,N/A,,Scattered Clouds,250,2013-12-09 12:55:00
2:25 PM,50.0,46.4,87,30.36,6.2,WSW,12.7,-,N/A,,Scattered Clouds,240,2013-12-09 13:25:00
2:55 PM,50.0,46.4,87,30.36,6.2,WSW,11.5,-,N/A,,Partly Cloudy,250,2013-12-09 13:55:00
3:25 PM,50.0,46.4,87,30.39,6.2,WSW,11.5,-,N/A,,Unknown,250,2013-12-09 14:25:00
3:55 PM,48.2,46.4,93,30.39,6.2,WSW,10.4,-,N/A,,Unknown,250,2013-12-09 14:55:00
4:00 PM,49,46,86,30.40,12,WSW,8.9,,,,,250,2013-12-09 15:00:00
4:25 PM,48.2,46.4,93,30.39,6.2,WSW,9.2,-,N/A,,Unknown,250,2013-12-09 15:25:00
4:55 PM,46.4,44.6,93,30.39,6.2,WSW,8.1,-,N/A,,Unknown,240,2013-12-09 15:55:00
5:25 PM,46.4,44.6,93,30.39,6.2,WSW,9.2,-,N/A,,Partly Cloudy,240,2013-12-09 16:25:00
5:55 PM,46.4,46.4,100,30.39,6.2,WSW,9.2,-,N/A,,Scattered Clouds,240,2013-12-09 16:55:00
6:25 PM,46.4,44.6,93,30.42,6.2,SW,6.9,-,N/A,,Overcast,220,2013-12-09 17:25:00
6:55 PM,44.6,42.8,93,30.42,5.6,SW,6.9,-,N/A,,Mostly Cloudy,220,2013-12-09 17:55:00
7:00 PM,44,44,97,30.44,6,SW,6.7,,,,Mist,220,2013-12-09 18:00:00
7:25 PM,44.6,44.6,100,30.42,6.2,SW,6.9,-,N/A,,Mostly Cloudy,220,2013-12-09 18:25:00
7:55 PM,46.4,44.6,93,30.42,5.6,SW,10.4,-,N/A,,Partly Cloudy,220,2013-12-09 18:55:00
8:25 PM,46.4,46.4,100,30.45,3.1,SW,6.9,-,N/A,,Overcast,230,2013-12-09 19:25:00
8:55 PM,44.6,44.6,100,30.45,3.1,SW,8.1,-,N/A,,Mostly Cloudy,230,2013-12-09 19:55:00
9:25 PM,48.2,46.4,93,30.45,5.6,SW,11.5,-,N/A,,Overcast,230,2013-12-09 20:25:00
9:55 PM,48.2,46.4,93,30.45,4.3,SW,10.4,-,N/A,,Overcast,230,2013-12-09 20:55:00
10:00 PM,47,46,95,30.48,4,SW,11.2,,,,Mist,230,2013-12-09 21:00:00
10:25 PM,46.4,46.4,100,30.48,4.3,SW,9.2,-,N/A,,Overcast,230,2013-12-09 21:25:00
10:55 PM,44.6,44.6,100,30.48,3.7,SW,9.2,-,N/A,,Overcast,220,2013-12-09 21:55:00
11:25 PM,44.6,42.8,93,30.48,3.7,SW,6.9,-,N/A,,Unknown,220,2013-12-09 22:25:00
11:55 PM,42.8,41.0,93,30.48,3.7,SSW,5.8,-,N/A,,Unknown,200,2013-12-09 22:55:00